{"data":{"norad_id":61886,"intl_designator":"2024-204N","name":"STARLINK-11351 [DTC]","alt_names":[],"object_type":"PAYLOAD","status":"ACTIVE","operator":null,"country":"US","launch_date":"2024-11-09","launch_site_code":"AFWTR","launch_vehicle":null,"mission":null,"orbit_class":"UNKNOWN","rcs_meters":null,"size_class":null,"mass_kg":null,"dimensions":null,"purposes":["comms"],"wikipedia_slug":null,"has_3d_model":false,"image_url":null,"decayed_at":null,"tle_current":{"epoch":"2026-09-21T19:46:50.989728Z","epoch_age_seconds":74100,"freshness":"FRESH","line1":"1 61886U 24204N   26264.82420127 -.00000390  00000+0  16406-5 0  9991","line2":"2 61886  53.1587 109.1028 0000971  74.3902 285.7223 15.69706041107728","mean_motion":15.69706041,"eccentricity":9.71e-5,"inclination_deg":53.1587,"raan_deg":109.1028,"arg_perigee_deg":74.3902,"mean_anomaly_deg":285.7223,"bstar":1.6406e-6,"rev_number":10772,"period_min":91.736921588365,"perigee_km":359.08383191594,"apogee_km":360.3923272564,"semimajor_km":6737.8750795862,"source":"CELESTRAK","updated_at":"2026-09-22T09:00:49.446857Z"}}}